Hourly Data Report for February 13, 2006

TORONTO CITY
ONTARIO

43°40'00.000" N
79°24'00.000" W
112.50 m
6158355
71508
XTO

Download Data

Hourly Data (February 2006)
Hourly Data Report for February 13, 2006
TIME
LST
Temp Definition
°C
Dew Point Definition
°C
Rel Hum Definition
%
Precip. Amount Definition
mm

Wind Dir Definition
10's deg

Wind Spd Definition
km/h
Visibility Definition
km
Stn Press Definition
kPa
Hmdx Definition


Wind Chill Definition


Weather Definition


00:00 -3.8 -6.1 84   LegendMM LegendMM   99.53     LegendNANA
01:00 -3.5 -5.6 85   LegendMM LegendMM   99.48     LegendNANA
02:00 -2.9 -5.5 82   LegendMM LegendMM   99.46     LegendNANA
03:00 -2.6 -5.6 80   LegendMM LegendMM   99.42     LegendNANA
04:00 -3.2 -8.1 69   LegendMM LegendMM   99.40     LegendNANA
05:00 -4.1 -8.3 73   LegendMM LegendMM   99.41     LegendNANA
06:00 -4.4 -8.6 72   LegendMM LegendMM   99.46     LegendNANA
07:00 -4.1 -8.5 71   LegendMM LegendMM   99.48     LegendNANA
08:00 -4.1 -7.9 75   LegendMM LegendMM   99.51     LegendNANA
09:00 -3.7 -8.8 68   LegendMM LegendMM   99.55     LegendNANA
10:00 -2.7 -7.5 69   LegendMM LegendMM   99.54     LegendNANA
11:00 -1.8 -8.6 60   LegendMM LegendMM   99.53     LegendNANA
12:00 -1.8 -7.7 64   LegendMM LegendMM   99.48     LegendNANA
13:00 -1.5 -9.6 54   LegendMM LegendMM   99.41     LegendNANA
14:00 -1.8 -9.6 55   LegendMM LegendMM   99.36     LegendNANA
15:00 -1.6 -9.0 57   LegendMM LegendMM   99.30     LegendNANA
16:00 -1.4 -8.9 57   LegendMM LegendMM   99.25     LegendNANA
17:00 -2.2 -6.3 73   LegendMM LegendMM   99.25     LegendNANA
18:00 -2.7 -6.4 76   LegendMM LegendMM   99.24     LegendNANA
19:00 -2.8 -7.0 73   LegendMM LegendMM   99.30     LegendNANA
20:00 -2.9 -5.9 80   LegendMM LegendMM   99.36     LegendNANA
21:00 -2.5 -5.8 78   LegendMM LegendMM   99.38     LegendNANA
22:00 -2.3 -6.4 73   LegendMM LegendMM   99.40     LegendNANA
23:00 -2.3 -6.5 73   LegendMM LegendMM   99.39     LegendNANA

Notes on Data Quality.

Legend

  • E = Estimated
  • M = Missing
  • NA = Not Available*
  • [empty] = Indicates an unobserved value
Date modified: